Regional Weather Roundup
Issued by NWS Wakefield, VA

Home | Current Version | Previous Version | Text Only | Print | Product List | Glossary Off
Versions: 1 2 3 4 5 6 7 8 9 10 11 12 13 14 15 16 17 18 19 20 21 22 23 24 25 26 27 28 29 30 31 32 33 34 35 36 37 38 39 40 41 42 43 44 45 46 47 48 49 50

260
ASUS41 KAKQ 231715
RWRAKQ

REGIONAL WEATHER ROUNDUP
NATIONAL WEATHER SERVICE WAKEFIELD VA
100 PM EDT FRI JUN 23 2017

Note: "fair" indicates few or no clouds below 12,000 feet with no
significant weather and/or obstructions to visibility. * = Denotes
station may not report precipitation (e.g., rain,snow,etc.),
thunder or fog.

VAZ042-051-052>054-056-231800-
NORTHERN VIRGINIA

CITY           SKY/WX    TMP DP  RH WIND       PRES   REMARKS
WASH NATIONAL  PTSUNNY   88  74  63 SW20      29.79S HX  96
DULLES         CLOUDY    83  72  69 S13       29.79S
FORT BELVOIR   NOT AVBL
QUANTICO       CLOUDY    85  74  69 SW16G25   29.81F
FREDERICKSBRG* CLOUDY    83  75  76 SW15      29.82F
STAFFORD*      PTSUNNY   82  74  78 SW6G17    29.86S
WARRENTON      CLOUDY    83  70  66 SW13G20   29.81S
CULPEPER*      CLOUDY    82  74  76 SW9G22    29.82F
MANASSAS*      CLOUDY    82  73  74 SW10G16   29.80S
LEESBURG*      PTSUNNY  N/A N/A N/A SW12G20   29.79F
WINCHESTER     CLOUDY    84  72  65 S15       29.78F
FRONT ROYAL*   CLOUDY    84  72  65 SW9G20    29.79F
LURAY*         MOSUNNY   82  72  69 S13G20    29.81F
$$

VAZ048-049-060>072-079>083-231800-
CENTRAL AND SOUTH CENTRAL VIRGINIA

CITY           SKY/WX    TMP DP  RH WIND       PRES   REMARKS
RICHMOND       CLOUDY    86  75  69 SW18      29.86F HX  95
CHESTERFIELD*  PTSUNNY   85  76  74 SW10G28   29.87F
PETERSBURG*    PTSUNNY   85  71  63 SW14G26   29.88F
HANOVER        CLOUDY    84  72  67 SW13G25   29.87F
TAPPAHANNOCK*  CLOUDY    84  71  64 SW10G20   29.86S
QUINTON*       FAIR      84  77  79 SW10      29.86F
CHARLOTTSVILLE CLOUDY    82  74  76 SW7       29.85S
GORDONSVILLE*  CLOUDY    80  75  84 SW12      29.84F
ORANGE*        LGT RAIN  79  72  78 S14       29.84F
LOUISA*        CLOUDY    84  77  79 SW8G17    29.85
BUMPASS*       PTSUNNY   81  76  82 SW9G18    29.85F
FARMVILLE*     CLOUDY    83  69  62 SW13      29.87F
CREWE*         FAIR      85  70  60 SW9G22    29.89F
FORT PICKETT*  FAIR      84  74  71 SW15G23   29.89F
CHASE CITY*    FAIR      84  79  85 SW7       29.91F HX  95
CLARKSVILLE*   FAIR      86  75  70 SW14G21   29.91F HX  95
SOUTH HILL*    CLOUDY    84  76  76 SW13G21   29.97F
LAWRENCEVILLE* FAIR      83  74  73 SW14      29.91F
EMPORIA*       MOSUNNY   82  73  74 S12G20    29.92F
$$

VAZ088>098-231800-
SOUTHEAST VIRGINIA

CITY           SKY/WX    TMP DP  RH WIND       PRES   REMARKS
NORFOLK        MOSUNNY   88  74  63 SW17G26   29.89F HX  96
VIRGINIA BEACH PTSUNNY   86  73  65 SW17G25   29.90F
NORFOLK NAVAL  NOT AVBL
WEST POINT*    PTSUNNY   85  72  65 SW12G21   29.87F
SALUDA*        FAIR      84  75  74 SW9G16    29.85F
NEWPORT NEWS   MOSUNNY   85  75  72 SW16G26   29.89F
LANGLEY AFB    MOSUNNY   86  75  70 SW18G25   29.88F HX  95
FORT EUSTIS    PTSUNNY   85  75  70 SW10G20   29.86F
WILLIAMSBURG*  PTSUNNY   88  75  66 CALM      29.89S HX  97
HR EXEC AP*    FAIR      88  75  66 SW15G22   29.88F HX  97
FRANKLIN*      CLOUDY    84  73  70 SW16G23   29.92F
US460-WAKEFLD  PTSUNNY   85  75  72 SW16G23   29.89F
$$

VAZ020-022-025-037-045-231800-
WEST CENTRAL AND SOUTHWEST VIRGINIA

CITY           SKY/WX    TMP DP  RH WIND       PRES   REMARKS
STAUNTON*      CLOUDY    76  70  80 SW12      29.89F
WAYNESBORO*    CLOUDY    78  72  81 SW10G18   29.89F
HOT SPRINGS VA CLOUDY    66  63  88 W29G41    30.00F
LYNCHBURG      PTSUNNY   82  72  71 SW14      29.90F
DANVILLE       PTSUNNY   84  74  71 SW17      29.91F
SOUTH BOSTON*  FAIR      84  76  75 SW13G21   29.91F
MARTINSVILLE   CLOUDY    81  71  72 SW7G16    29.96F
ROANOKE        CLOUDY    82  69  64 SW8       29.92F
BLACKSBURG     PTSUNNY   78  69  73 SW7       29.99F
DUBLIN*        PTSUNNY   80  65  59 S9G16     29.98F
MARION*        CLOUDY    76  63  64 W15G25    30.03R
HILLSVILLE*    PTSUNNY   76  65  68 CALM      30.01S
RICHLANDS*     CLOUDY    71  67  89 SW12G18   30.02F
WISE*          CLOUDY    70  68  94 SW17G30   30.02F
ABINGDON*      RAIN      75  70  85 W14       30.01S
$$

MDZ021>025-VAZ099-100-231800-
SOUTHERN MARYLAND AND THE DELMARVA PENINSULA

CITY           SKY/WX    TMP DP  RH WIND       PRES   REMARKS
PATUXENT RIVER PTSUNNY   86  75  69 SW17G25   29.81F HX  95
BAY BRIDGE APT SUNNY     86  75  70 SW13G21   29.78F HX  95
LEONARDTOWN    SUNNY     84  72  65 SW16G28   29.83F
DOVER          PTSUNNY   83  82  98 SW23G31   29.77F HX  98
GEORGETOWN     LGT RAIN  85  73  67 SW18G32   29.82F
EASTON         MOSUNNY   84  73  70 SW18G25   29.84F
CAMBRIDGE      MOSUNNY   84  75  74 S12G17    29.81F
SALISBURY      MOSUNNY   85  75  72 SW13G26   29.83F
OCEAN CITY     CLOUDY    80  73  79 SW17G26   29.85F
WALLOPS ISLAND PTSUNNY   80  75  84 S12       29.87F
ACCOMACK*      CLOUDY    84  72  67 SW14G21   29.87F
$$

NCZ012>017-030>032-231800-
NORTH CENTRAL AND EASTERN NORTH CAROLINA

CITY           SKY/WX    TMP DP  RH WIND       PRES   REMARKS
ROANOKE RAPIDS PTSUNNY   82  77  83 SW13G25   29.93F
RALEIGH        PTSUNNY   87  74  64 SW18G28   29.96F HX  95
ELIZABETH CITY MOSUNNY   83  76  79 SW16G25   29.94F
AHOSKIE*         N/A     81  76  84 S3        29.94F
EDENTON*       MOSUNNY   85  76  74 SW14      29.96F
CURRITUCK*     PTSUNNY   84  75  73 S8G16     29.95S
KILL DEVIL HLS LGT RAIN  83  73  71 SW3       29.96S
MANTEO         PTSUNNY   83  74  73 SW14      29.97F
CAPE HATTERAS  MOSUNNY   85  77  77 SW13G18   30.01F HX  95
TARBORO*       NOT AVBL
GOLDSBORO      PTSUNNY   88  79  74 SW16G22   29.96F HX 102
WASHINGTON     CLOUDY    84  75  75 SW13G18   29.97F
GREENVILLE     PTSUNNY   86  75  70 SW13      29.99S HX  95
NEW BERN       CLOUDY    86  75  69 SW10G20   30.00F HX  95
WILMINGTON     CLOUDY    86  75  69 SW12      30.01F HX  95
$$

VAZ048-231800-
ELSEWHERE

CITY           SKY/WX    TMP DP  RH WIND       PRES   REMARKS
HARRISBURG PA  CLOUDY    81  73  76 W7        29.72F
BALTIMORE      PTSUNNY   85  75  72 SW10G20   29.77F
ANNAPOLIS      MOSUNNY   87  76  69 SW13G21   29.77F HX  97
ANDREWS AFB    MOSUNNY   86  72  62 SW21G28   29.79F
PHILADELPHIA   CLOUDY    80  71  74 SW17      29.76F
HENDERSON NC   SUNNY     83  72  70 SW17G26   29.94S
GREENSBORO     PTSUNNY   84  72  67 W18       29.95F
ROCKY MOUNT    CLOUDY    86  76  71 SW17G24   29.95F HX  96
$$

VAZ100-231800-
MARINE

STATION/POSITION TIME  TEMP    WIND        PRES    WAVE   SWELL
                       AIR SEA DIR/SP/G            HT/PER HT/PER
                 (UTC) (F)     (DEG/KT/KT) (MB)    (FT/S) (FT/S)
BRANDYWINE LGT   1642   78     240/ 22/ 25 1009.7F
CAPE MAY NJ      1648   77 70  220/ 12/ 14 1009.4F
LEWES DE         1642   83 70  230/  8/ 17 1009.4F
15NM E FENWICK I 1650   71 69  190/ 17/ 21 1011.0F   2/ 8   2/ 8
OCEAN-CITY-INLET 1648   70 66  210/ 16/ 20 1011.1F
WACHAPREAGUE VA  1648   83 81  190/ 12/ 18 1011.3F
THOMAS POINT MD  1700   83 78  230/ 17/ 19   N/A
GOOSES REEF MD   1700   82 79  270/ 16/ 19 1009.6    2/ 3
COVE POINT MD    1648   83     240/ 10/ 18 1010.0F
SOLOMONS ISLAND  1642   83 77  240/ 19/ 25   N/A
BISHOPS HEAD MD  1600      79  220/ 20/ 23 1010.7
PINEY POINT MD   1648          250/  8/ 11   N/A
POTOMAC MD       1700   82 78  250/ 16/ 19 1009.3    2/ 3
CAMBRIDGE MD     1648   85 81              1010.1F
LEWISETTA VA     1648   83 79  260/ 13/ 23 1010.1F
RAPPAHANNOCK LGT 1648          180/ 17/ 19 1012.0F
STINGRAY PT      1700   82 77  250/ 14/ 19 1011.4    1/ 2
YORK RVR RNG VA  1648   83     230/ 17/ 20 1011.7F
YORKTOWN VA      1648   83 77  220/ 16/ 20 1011.2F
JAMESTOWN VA     1700   84 82  220/ 14/ 17   N/A     1
DOMINION TERM VA 1648   81     220/ 14/ 18 1012.4F
KIPTOPEKE VA     1648      74  200/  9/ 10   N/A
CHES BAY BRIDGE  1648   83 74  240/ 15/ 18 1012.0F
CAPE HENRY VA    1648   86     220/ 12/ 16   N/A
WILLOUBY STN VA  1648   82     230/ 18/ 20 1012.1F
S CRANEY ISL VA  1648   84     220/ 12/ 20 1012.2F
CAPE HENRY BUOY  1700      73                N/A     2/ 9
1ST LANDING BUOY 1700   81 74              1012.2    1/ 2
CAPE CHARLES BUO 1651      69                N/A     2/ 9
64NM E OF VA BCH 1650   74 73  200/ 12/ 14 1014.4F   3/ 8   2/ 8
DUCK PIER NC     1648   82 64  210/ 12/ 16 1013.8F
44100 DUCK FRF   1605      68                N/A     2/ 8
OREGON INLET NC  1636   81 80  190/ 16/ 18 1015.0F
HATTERAS NC      1648   82 79  210/ 12/ 15 1015.9F
DIAMOND SHLS NC  1650   80 80  220/ 17/ 19 1016.2F   3/ 9   2/ 9
CAPE LOOKOUT NC  1700   81     210/ 12/ 15 1016.1F
$$




USA.gov is the U.S. government's official web portal to all federal, state and local government web resources and services.